timestamp,surface_pressure_avg,surface_temp_avg,battery_voltage,lat,long
2020-05-02 00:09:01+00:00,215.5281,3.4,12.97,47.84626,-54.09684
2020-05-02 00:19:01+00:00,211.6764,3.4,12.73,47.84626,-54.09684
2020-05-02 00:29:01+00:00,209.7314,3.4,12.73,47.84626,-54.09684
2020-05-02 00:39:01+00:00,209.6831,3.4,12.73,47.84626,-54.09684
2020-05-02 00:49:01+00:00,209.4998,3.4,12.73,47.84626,-54.09684
2020-05-02 00:59:01+00:00,207.5414,3.39,12.73,47.84626,-54.09684
2020-05-02 01:09:01+00:00,208.3131,3.3,12.73,47.84626,-54.09684
2020-05-02 01:19:01+00:00,209.6814,3.3,12.73,47.84626,-54.09684
2020-05-02 01:29:01+00:00,209.2797,3.3,12.73,47.84626,-54.09684
2020-05-02 01:39:01+00:00,210.5014,3.3,12.73,47.84626,-54.09684
2020-05-02 01:49:01+00:00,213.6264,3.3,12.73,47.84626,-54.09684
2020-05-02 01:59:01+00:00,215.3431,3.3,12.73,47.84626,-54.09684
2020-05-02 02:09:01+00:00,219.7881,3.3,12.73,47.84626,-54.09684
2020-05-02 02:19:01+00:00,226.7164,3.3,12.65,47.84626,-54.09684
2020-05-02 02:29:01+00:00,229.2048,3.3,12.65,47.84626,-54.09684
2020-05-02 02:39:01+00:00,231.8764,3.3,12.65,47.84626,-54.09684
2020-05-02 02:49:01+00:00,236.6181,3.3,12.65,47.84626,-54.09684
2020-05-02 02:59:01+00:00,236.3398,3.3,12.65,47.84626,-54.09684
2020-05-02 03:09:01+00:00,238.1148,3.3,12.65,47.84626,-54.09684
2020-05-02 03:19:01+00:00,243.56799999999998,3.3,12.65,47.84626,-54.09684
2020-05-02 03:29:01+00:00,250.4998,3.3,12.65,47.84626,-54.09684
2020-05-02 03:39:01+00:00,251.3214,3.3,12.65,47.84626,-54.09684
2020-05-02 03:49:01+00:00,254.468,3.3,12.65,47.84626,-54.09684
2020-05-02 03:59:01+00:00,262.1581,3.29,12.65,47.84626,-54.09684
2020-05-02 04:09:01+00:00,270.3731,3.26,12.65,47.84626,-54.09684
2020-05-02 04:19:01+00:00,272.1815,3.29,12.65,47.84626,-54.09684
2020-05-02 04:29:01+00:00,277.1447,3.3,12.65,47.84626,-54.09684
2020-05-02 04:39:01+00:00,284.7864,3.27,12.65,47.84626,-54.09684
2020-05-02 04:49:01+00:00,289.7164,3.29,12.65,47.84626,-54.09684
2020-05-02 04:59:01+00:00,288.7364,3.3,12.65,47.84626,-54.09684
2020-05-02 05:09:01+00:00,295.6397,3.3,12.65,47.84626,-54.09684
2020-05-02 05:19:01+00:00,308.5079,3.3,12.65,47.84626,-54.09684
2020-05-02 05:29:01+00:00,314.0598,3.29,12.65,47.84626,-54.09684
2020-05-02 05:39:01+00:00,312.2613,3.28,12.65,47.84626,-54.09684
2020-05-02 05:49:01+00:00,316.1663,3.27,12.65,47.84626,-54.09684
2020-05-02 05:59:01+00:00,320.7081,3.24,12.65,47.84626,-54.09684
2020-05-02 06:09:01+00:00,318.7713,3.21,12.65,47.84626,-54.09684
2020-05-02 06:19:01+00:00,315.5397,3.23,12.57,47.84626,-54.09684
2020-05-02 06:29:01+00:00,318.6464,3.23,12.57,47.84626,-54.09684
2020-05-02 06:39:01+00:00,321.8564,3.22,12.57,47.84626,-54.09684
2020-05-02 06:49:01+00:00,319.1079,3.24,12.57,47.84626,-54.09684
2020-05-02 06:59:01+00:00,319.108,3.25,12.57,47.84626,-54.09684
2020-05-02 07:09:01+00:00,325.7346,3.26,12.57,47.84626,-54.09684
2020-05-02 07:19:01+00:00,326.5096,3.25,12.57,47.84626,-54.09684
2020-05-02 07:29:01+00:00,323.6313,3.25,12.57,47.84626,-54.09684
2020-05-02 07:39:01+00:00,321.9697,3.26,12.57,47.84626,-54.09684
2020-05-02 07:49:01+00:00,320.573,3.27,12.57,47.84626,-54.09684
2020-05-02 07:59:01+00:00,315.1614,3.28,12.57,47.84626,-54.09684
2020-05-02 08:09:01+00:00,312.0613,3.28,12.57,47.84626,-54.09684
2020-05-02 08:19:01+00:00,311.4431,3.27,12.57,47.84626,-54.09684
2020-05-02 08:29:01+00:00,309.5513,3.28,12.57,47.84626,-54.09684
2020-05-02 08:39:01+00:00,303.4946,3.28,12.57,47.84626,-54.09684
2020-05-02 08:49:01+00:00,297.733,3.27,12.57,47.84626,-54.09684
2020-05-02 08:59:01+00:00,292.7547,3.27,12.57,47.84626,-54.09684
2020-05-02 09:09:01+00:00,286.0697,3.28,12.57,47.84626,-54.09684
2020-05-02 09:19:01+00:00,280.8064,3.29,12.57,47.84626,-54.09684
2020-05-02 09:29:01+00:00,277.0497,3.3,12.57,47.84626,-54.09684
2020-05-02 09:39:01+00:00,270.4014,3.3,12.57,47.84626,-54.09684
2020-05-02 09:49:01+00:00,260.0647,3.3,12.57,47.84626,-54.09684
2020-05-02 09:59:01+00:00,253.6364,3.3,12.57,47.84626,-54.09684
2020-05-02 10:09:01+00:00,252.7397,3.3,12.57,47.84626,-54.09684
2020-05-02 10:19:01+00:00,249.0414,3.3,12.73,47.84626,-54.09684
2020-05-02 10:29:01+00:00,243.3214,3.3,12.73,47.84626,-54.09684
2020-05-02 10:39:01+00:00,236.7948,3.3,12.73,47.84626,-54.09684
2020-05-02 10:49:01+00:00,232.7831,3.37,12.73,47.84626,-54.09684
2020-05-02 10:59:01+00:00,227.0798,3.4,12.73,47.84626,-54.09684
2020-05-02 11:09:01+00:00,224.0798,3.4,12.73,47.84626,-54.09684
2020-05-02 11:19:01+00:00,224.8897,3.4,12.81,47.84626,-54.09684
2020-05-02 11:29:01+00:00,225.8414,3.4,12.81,47.84626,-54.09684
2020-05-02 11:39:01+00:00,224.4848,3.4,12.81,47.84626,-54.09684
2020-05-02 11:49:01+00:00,224.6898,3.41,12.81,47.84626,-54.09684
2020-05-02 11:59:01+00:00,226.5698,3.41,12.81,47.84626,-54.09684
2020-05-02 12:09:01+00:00,225.3965,3.44,12.81,47.84626,-54.09684
2020-05-02 12:19:01+00:00,221.0098,3.45,13.13,47.84626,-54.09684
2020-05-02 12:29:01+00:00,217.4863,3.48,13.13,47.84626,-54.09684
2020-05-02 12:39:01+00:00,215.9414,3.5,13.13,47.84626,-54.09684
2020-05-02 12:49:01+00:00,213.2214,3.5,13.13,47.84626,-54.09684
2020-05-02 12:59:01+00:00,210.7598,3.5,13.13,47.84626,-54.09684
2020-05-02 13:09:01+00:00,210.9581,3.5,13.13,47.84626,-54.09684
2020-05-02 13:19:01+00:00,214.3548,3.5,13.29,47.84626,-54.09684
2020-05-02 13:29:01+00:00,215.0131,3.5,13.29,47.84626,-54.09684
2020-05-02 13:39:01+00:00,214.9631,3.5,13.29,47.84626,-54.09684
2020-05-02 13:49:01+00:00,216.7131,3.5,13.29,47.84626,-54.09684
2020-05-02 13:59:01+00:00,216.7264,3.5,13.29,47.84626,-54.09684
2020-05-02 14:09:01+00:00,215.1098,3.52,13.29,47.84626,-54.09684
2020-05-02 14:19:01+00:00,215.0881,3.58,13.53,47.84626,-54.09684
2020-05-02 14:29:01+00:00,219.1148,3.6,13.53,47.84626,-54.09684
2020-05-02 14:39:01+00:00,223.6048,3.59,13.53,47.84626,-54.09684
2020-05-02 14:49:01+00:00,225.1148,3.58,13.53,47.84626,-54.09684
2020-05-02 14:59:01+00:00,226.1214,3.55,13.53,47.84626,-54.09684
2020-05-02 15:09:01+00:00,229.1531,3.5,13.53,47.84626,-54.09684
2020-05-02 15:19:01+00:00,233.6181,3.5,13.44,47.84626,-54.09684
2020-05-02 15:29:01+00:00,237.6181,3.5,13.44,47.84626,-54.09684
2020-05-02 15:39:01+00:00,240.8415,3.5,13.44,47.84626,-54.09684
2020-05-02 15:49:01+00:00,244.1314,3.5,13.44,47.84626,-54.09684
2020-05-02 15:59:01+00:00,247.2931,3.5,13.44,47.84626,-54.09684
2020-05-02 16:09:01+00:00,250.5764,3.5,13.44,47.84626,-54.09684
2020-05-02 16:19:01+00:00,254.3398,3.5,13.84,47.84626,-54.09684
2020-05-02 16:29:01+00:00,258.7931,3.49,13.84,47.84626,-54.09684
2020-05-02 16:39:01+00:00,263.6648,3.47,13.84,47.84626,-54.09684
2020-05-02 16:49:01+00:00,269.5764,3.46,13.84,47.84626,-54.09684
2020-05-02 16:59:01+00:00,274.5798,3.48,13.84,47.84626,-54.09684
2020-05-02 17:09:01+00:00,280.1214,3.5,13.84,47.84626,-54.09684
2020-05-02 17:19:01+00:00,285.6813,3.5,13.76,47.84626,-54.09684
2020-05-02 17:29:01+00:00,291.888,3.5,13.76,47.84626,-54.09684
2020-05-02 17:39:01+00:00,295.1897,3.5,13.76,47.84626,-54.09684
2020-05-02 17:49:01+00:00,299.7797,3.5,13.76,47.84626,-54.09684
2020-05-02 17:59:01+00:00,306.9863,3.5,13.76,47.84626,-54.09684
2020-05-02 18:09:01+00:00,310.5579,3.5,13.76,47.84626,-54.09684
2020-05-02 18:19:01+00:00,313.1464,3.5,13.68,47.84626,-54.09684
2020-05-02 18:29:01+00:00,314.733,3.5,13.68,47.84626,-54.09684
2020-05-02 18:39:01+00:00,315.178,3.55,13.68,47.84626,-54.09684
2020-05-02 18:49:01+00:00,313.3797,3.59,13.68,47.84626,-54.09684
2020-05-02 18:59:01+00:00,312.8363,3.6,13.68,47.84626,-54.09684
2020-05-02 19:09:01+00:00,315.4746,3.6,13.68,47.84626,-54.09684
2020-05-02 19:19:01+00:00,317.5513,3.6,13.37,47.84626,-54.09684
2020-05-02 19:29:01+00:00,316.9263,3.6,13.37,47.84626,-54.09684
2020-05-02 19:39:01+00:00,318.093,3.6,13.37,47.84626,-54.09684
2020-05-02 19:49:01+00:00,319.8864,3.6,13.37,47.84626,-54.09684
2020-05-02 19:59:01+00:00,322.21299999999997,3.6,13.37,47.84626,-54.09684
2020-05-02 20:09:01+00:00,320.6463,3.6,13.37,47.84626,-54.09684
2020-05-02 20:19:01+00:00,320.2363,3.6,13.13,47.84626,-54.09684
2020-05-02 20:29:01+00:00,320.6863,3.6,13.13,47.84626,-54.09684
2020-05-02 20:39:01+00:00,317.278,3.6,13.13,47.84626,-54.09684
2020-05-02 20:49:01+00:00,310.8363,3.62,13.13,47.84626,-54.09684
2020-05-02 20:59:01+00:00,306.5446,3.66,13.13,47.84626,-54.09684
2020-05-02 21:09:01+00:00,305.438,3.67,13.13,47.84626,-54.09684
2020-05-02 21:19:01+00:00,300.1897,3.67,12.81,47.84626,-54.09684
2020-05-02 21:29:01+00:00,291.9847,3.68,12.81,47.84626,-54.09684
2020-05-02 21:39:01+00:00,285.368,3.68,12.81,47.84626,-54.09684
2020-05-02 21:49:01+00:00,280.2064,3.65,12.81,47.84626,-54.09684
2020-05-02 21:59:01+00:00,272.8764,3.66,12.81,47.84626,-54.09684
2020-05-02 22:09:01+00:00,266.6414,3.68,12.81,47.84626,-54.09684
2020-05-02 22:19:01+00:00,264.3514,3.69,12.73,47.84626,-54.09684
2020-05-02 22:29:01+00:00,260.1647,3.69,12.73,47.84626,-54.09684
2020-05-02 22:39:01+00:00,252.0681,3.67,12.73,47.84626,-54.09684
2020-05-02 22:49:01+00:00,246.6248,3.68,12.73,47.84626,-54.09684
2020-05-02 22:59:01+00:00,247.9631,3.69,12.73,47.84626,-54.09684
2020-05-02 23:09:01+00:00,247.1914,3.7,12.73,47.84626,-54.09684
2020-05-02 23:19:01+00:00,242.3864,3.7,12.65,47.84626,-54.09684
2020-05-02 23:29:01+00:00,237.9865,3.7,12.65,47.84626,-54.09684
2020-05-02 23:39:01+00:00,237.1948,3.7,12.65,47.84626,-54.09684
2020-05-02 23:49:01+00:00,236.968,3.7,12.65,47.84626,-54.09684
2020-05-02 23:59:01+00:00,238.2397,3.69,12.65,47.84626,-54.09684
